Change the Weather History Date:

Friday, February 15, 2013

  Actual Average Record
Temperature  
Mean Temperature 37 °F -  
Max Temperature 42 °F 42 °F 50 °F (2007)
Min Temperature 32 °F 36 °F 26 °F (2002)
Degree Days  
Heating Degree Days 28    
Moisture  
Dew Point 38 °F    
Average Humidity 99    
Maximum Humidity 100    
Minimum Humidity 93    
Precipitation  
Precipitation 0.00 in - - ()
Sea Level Pressure  
Sea Level Pressure 29.99 in    
Wind  
Wind Speed 6 mph ()    
Max Wind Speed 12 mph    
Max Gust Speed -    
Visibility 2.8 miles    
Events Fog , Rain    
Averages and records for this station are not official NWS values.
T = Trace of Precipitation, MM = Missing Value Source: Averaged Metar Reports

Daily Weather History Graph

Daily Weather History Graph

Search for Another Location

Airport or City:

Trip Planner

Search our weather history database for the weather conditions in past years. The results will help you decide how hot, cold, wet, or windy it might be!

Date:

Astronomy

Feb. 15, 2013 Rise Set
Actual Time 7:58 AM CET 5:51 PM CET
Civil Twilight 7:22 AM CET 6:27 PM CET
Nautical Twilight 6:41 AM CET 7:08 PM CET
Astronomical Twilight 6:01 AM CET 7:48 PM CET
Moon 9:32 AM CET (2/15) No Moon Set
Length of Visible Light 11h 05m
Length of Day
9h 53m
Waxing Crescent, 28% of the Moon is Illuminated
Feb 15
Waxing Crescent
Feb 17
First Quarter
Feb 25
Full
Mar 4
Last Quarter
Mar 11
New

Hourly Weather History & Observations

Time (CET) Temp. Windchill Dew Point Humidity Pressure Visibility Wind Dir Wind Speed Gust Speed Precip Events Conditions
12:03 AM 32.0 °F 28.7 °F 32.0 °F 100% 29.83 in 0.6 mi WNW 3.5 mph - N/A   Overcast
12:16 AM 33.8 °F 29.6 °F 32.0 °F 93% 29.83 in 0.8 mi WNW 4.6 mph - N/A   Mostly Cloudy
12:25 AM 33.8 °F 29.6 °F 32.0 °F 93% 29.83 in 1.0 mi West 4.6 mph - N/A   Mostly Cloudy
12:29 AM 33.8 °F 29.6 °F 32.0 °F 93% 29.83 in 0.9 mi West 4.6 mph - N/A   Mostly Cloudy
12:34 AM 32.0 °F 27.5 °F 32.0 °F 100% 29.83 in 1.0 mi WNW 4.6 mph - N/A   Mostly Cloudy
12:47 AM 33.8 °F 28.6 °F 33.8 °F 100% 29.83 in 1.2 mi WNW 5.8 mph - N/A   Mostly Cloudy
12:55 AM 33.8 °F 27.7 °F 33.8 °F 100% 29.86 in 1.2 mi WNW 6.9 mph - N/A   Overcast
1:25 AM 35.6 °F 30.7 °F 35.6 °F 100% 29.86 in 1.4 mi NW 5.8 mph - N/A   Mostly Cloudy
1:55 AM 35.6 °F 31.7 °F 35.6 °F 100% 29.86 in 1.1 mi NNW 4.6 mph - N/A   Mostly Cloudy
2:25 AM 35.6 °F 31.7 °F 35.6 °F 100% 29.86 in 1.4 mi NNW 4.6 mph - N/A   Overcast
2:55 AM 35.6 °F - 35.6 °F 100% 29.86 in 1.1 mi NW 2.3 mph - N/A   Overcast
3:15 AM 35.6 °F - 35.6 °F 100% 29.86 in 0.9 mi NW 2.3 mph - N/A   Mostly Cloudy
3:25 AM 35.6 °F - 33.8 °F 93% 29.86 in 0.8 mi NNW 1.2 mph - N/A   Mostly Cloudy
3:41 AM 33.8 °F - 33.8 °F 100% 29.89 in 1.1 mi NNW 1.2 mph - N/A   Overcast
3:45 AM 33.8 °F - 33.8 °F 100% 29.89 in 0.9 mi NNW 1.2 mph - N/A   Overcast
3:51 AM 33.8 °F - 33.8 °F 100% 29.89 in 1.0 mi NNW 1.2 mph - N/A   Mostly Cloudy
3:55 AM 33.8 °F - 33.8 °F 100% 29.89 in 0.9 mi NNW 1.2 mph - N/A   Mostly Cloudy
4:02 AM 33.8 °F - 33.8 °F 100% 29.89 in 1.0 mi NNW 1.2 mph - N/A   Mostly Cloudy
4:10 AM 33.8 °F - 33.8 °F 100% 29.89 in 0.9 mi NW 1.2 mph - N/A   Scattered Clouds
4:14 AM 33.8 °F - 33.8 °F 100% 29.89 in 1.1 mi WNW 1.2 mph - N/A   Partly Cloudy
4:18 AM 33.8 °F - 33.8 °F 100% 29.89 in 0.7 mi West 1.2 mph - N/A   Mist
4:25 AM 33.8 °F - 33.8 °F 100% 29.89 in 0.3 mi WSW 1.2 mph - N/A Fog Fog
4:29 AM 33.8 °F - 33.8 °F 100% 29.89 in 0.9 mi WSW 2.3 mph - N/A   Partly Cloudy
4:41 AM 33.8 °F 29.6 °F 32.0 °F 93% 29.89 in 0.4 mi West 4.6 mph - N/A Fog Fog
4:55 AM 33.8 °F 27.7 °F 33.8 °F 100% 29.89 in 0.5 mi WSW 6.9 mph - N/A Fog Fog
5:04 AM 33.8 °F 27.7 °F 33.8 °F 100% 29.89 in - WSW 6.9 mph - N/A Fog Fog
5:25 AM 33.8 °F 27.7 °F 33.8 °F 100% 29.89 in 0.4 mi WSW 6.9 mph - N/A Fog Fog
5:43 AM 33.8 °F 26.4 °F 33.8 °F 100% 29.89 in 0.7 mi WSW 9.2 mph - N/A   Mist
5:49 AM 33.8 °F 26.4 °F 33.8 °F 100% 29.89 in 1.0 mi West 9.2 mph - N/A   Mist
5:55 AM 35.6 °F 29.2 °F 33.8 °F 93% 29.89 in 1.3 mi West 8.1 mph - N/A   Partly Cloudy
6:08 AM 33.8 °F 27.0 °F 33.8 °F 100% 29.92 in 1.1 mi WSW 8.1 mph - N/A   Mostly Cloudy
6:12 AM 33.8 °F 27.0 °F 33.8 °F 100% 29.92 in 0.9 mi WSW 8.1 mph - N/A   Mostly Cloudy
6:25 AM 35.6 °F 29.2 °F 35.6 °F 100% 29.92 in 0.7 mi WSW 8.1 mph - N/A   Overcast
6:29 AM 35.6 °F 29.2 °F 35.6 °F 100% 29.92 in 1.0 mi West 8.1 mph - N/A   Overcast
6:33 AM 35.6 °F 29.2 °F 35.6 °F 100% 29.92 in 0.8 mi West 8.1 mph - N/A   Overcast
6:37 AM 35.6 °F 28.6 °F 35.6 °F 100% 29.92 in 1.1 mi West 9.2 mph - N/A   Overcast
6:41 AM 35.6 °F 28.6 °F 35.6 °F 100% 29.92 in 0.9 mi West 9.2 mph - N/A   Overcast
6:55 AM 35.6 °F 28.6 °F 35.6 °F 100% 29.92 in - WSW 9.2 mph - N/A Fog Fog
7:02 AM 37.4 °F 30.8 °F 37.4 °F 100% 29.92 in 0.4 mi WSW 9.2 mph - N/A Fog Fog
7:09 AM 37.4 °F 30.8 °F 37.4 °F 100% 29.92 in 0.4 mi West 9.2 mph - N/A Fog Fog
7:13 AM 37.4 °F 31.4 °F 37.4 °F 100% 29.92 in 0.5 mi West 8.1 mph - N/A Fog Fog
7:25 AM 37.4 °F 30.8 °F 37.4 °F 100% 29.92 in 1.0 mi WSW 9.2 mph - N/A   Overcast
7:41 AM 37.4 °F 31.4 °F 37.4 °F 100% 29.92 in 0.9 mi WSW 8.1 mph - N/A   Overcast
7:44 AM 37.4 °F 31.4 °F 37.4 °F 100% 29.92 in 1.0 mi WSW 8.1 mph - N/A   Mostly Cloudy
7:49 AM 37.4 °F 31.4 °F 37.4 °F 100% 29.95 in 0.9 mi WSW 8.1 mph - N/A   Mostly Cloudy
7:55 AM 37.4 °F 31.4 °F 37.4 °F 100% 29.95 in 1.1 mi West 8.1 mph - N/A   Overcast
8:02 AM 37.4 °F 32.1 °F 37.4 °F 100% 29.95 in 0.8 mi West 6.9 mph - N/A   Overcast
8:25 AM 37.4 °F 32.1 °F 37.4 °F 100% 29.95 in 1.1 mi WSW 6.9 mph - N/A   Overcast
8:55 AM 39.2 °F 33.6 °F 37.4 °F 93% 29.95 in 1.5 mi West 8.1 mph - N/A   Overcast
9:25 AM 39.2 °F 34.2 °F 37.4 °F 93% 29.98 in 1.2 mi West 6.9 mph - N/A   Overcast
9:38 AM 37.4 °F 32.8 °F 37.4 °F 100% 29.98 in - WSW 5.8 mph - N/A Fog Fog
9:42 AM 39.2 °F 35.0 °F 37.4 °F 93% 29.98 in 0.6 mi WSW 5.8 mph - N/A   Mostly Cloudy
9:49 AM 39.2 °F 35.0 °F 39.2 °F 100% 29.98 in 1.1 mi WSW 5.8 mph - N/A   Overcast
9:55 AM 39.2 °F 33.6 °F 39.2 °F 100% 29.98 in 1.8 mi West 8.1 mph - N/A   Overcast
9:59 AM 39.2 °F 33.0 °F 39.2 °F 100% 29.98 in - West 9.2 mph - N/A   Overcast
10:04 AM 39.2 °F 33.0 °F 39.2 °F 100% 29.98 in 3.1 mi West 9.2 mph - N/A   Mostly Cloudy
10:09 AM 39.2 °F 33.6 °F 39.2 °F 100% 29.98 in 3.7 mi West 8.1 mph - N/A   Mostly Cloudy
10:25 AM 39.2 °F 32.5 °F 39.2 °F 100% 29.98 in 3.7 mi West 10.4 mph - N/A   Mostly Cloudy
10:29 AM 39.2 °F 32.0 °F 39.2 °F 100% 29.98 in 3.1 mi West 11.5 mph - N/A   Mostly Cloudy
10:33 AM 39.2 °F 32.0 °F 39.2 °F 100% 29.98 in 3.1 mi West 11.5 mph - N/A   Mostly Cloudy
10:43 AM 39.2 °F 33.0 °F 39.2 °F 100% 29.98 in 3.1 mi West 9.2 mph - N/A   Mostly Cloudy
10:55 AM 39.2 °F 33.0 °F 39.2 °F 100% 29.98 in 3.7 mi West 9.2 mph - N/A   Mostly Cloudy
11:07 AM 41.0 °F 36.4 °F 41.0 °F 100% 29.98 in 5.0 mi West 6.9 mph - N/A   Overcast
11:15 AM 41.0 °F 35.8 °F 41.0 °F 100% 29.98 in 5.0 mi West 8.1 mph - N/A   Overcast
11:19 AM 41.0 °F 35.8 °F 41.0 °F 100% 30.01 in 5.0 mi West 8.1 mph - N/A   Mostly Cloudy
11:25 AM 41.0 °F 36.4 °F 41.0 °F 100% 30.01 in 5.0 mi West 6.9 mph - N/A   Overcast
11:33 AM 41.0 °F 36.4 °F 41.0 °F 100% 30.01 in 5.6 mi WSW 6.9 mph - N/A   Mostly Cloudy
11:40 AM 41.0 °F 36.4 °F 41.0 °F 100% 30.01 in 5.6 mi WSW 6.9 mph - N/A   Overcast
11:55 AM 42.8 °F 39.3 °F 42.8 °F 100% 30.01 in 5.6 mi WSW 5.8 mph - N/A   Overcast
11:59 AM 42.8 °F 38.6 °F 42.8 °F 100% 30.01 in 6.2 mi West 6.9 mph - N/A   Overcast
12:25 PM 41.0 °F 37.1 °F 41.0 °F 100% 30.01 in 6.2 mi West 5.8 mph - N/A   Overcast
12:41 PM 41.0 °F 37.1 °F 41.0 °F 100% 30.01 in 6.2 mi WSW 5.8 mph - N/A   Overcast
12:55 PM 41.0 °F 37.1 °F 41.0 °F 100% 30.01 in 6.2 mi WSW 5.8 mph - N/A   Overcast
1:19 PM 41.0 °F 35.8 °F 41.0 °F 100% 30.01 in 4.3 mi WSW 8.1 mph - N/A   Overcast
1:25 PM 41.0 °F 35.8 °F 41.0 °F 100% 30.01 in 5.0 mi WSW 8.1 mph - N/A   Overcast
1:38 PM 41.0 °F 35.8 °F 41.0 °F 100% 30.01 in 5.6 mi WSW 8.1 mph - N/A   Overcast
1:50 PM 41.0 °F 35.8 °F 41.0 °F 100% 30.01 in 5.0 mi WSW 8.1 mph - N/A   Mostly Cloudy
1:55 PM 41.0 °F 35.8 °F 41.0 °F 100% 30.01 in 5.0 mi West 8.1 mph - N/A   Mostly Cloudy
1:59 PM 41.0 °F 36.4 °F 41.0 °F 100% 30.01 in 5.0 mi WSW 6.9 mph - N/A   Overcast
2:12 PM 41.0 °F 36.4 °F 41.0 °F 100% 30.01 in 5.6 mi WSW 6.9 mph - N/A   Overcast
2:25 PM 41.0 °F 36.4 °F 41.0 °F 100% 30.01 in 5.0 mi WSW 6.9 mph - N/A   Overcast
2:32 PM 41.0 °F 36.4 °F 41.0 °F 100% 30.04 in 4.3 mi WSW 6.9 mph - N/A   Overcast
2:38 PM 41.0 °F 36.4 °F 41.0 °F 100% 30.04 in 5.0 mi WSW 6.9 mph - N/A   Overcast
2:48 PM 41.0 °F 35.8 °F 41.0 °F 100% 30.04 in 4.3 mi WSW 8.1 mph - N/A   Overcast
2:55 PM 41.0 °F 35.8 °F 41.0 °F 100% 30.04 in 4.3 mi WSW 8.1 mph - N/A   Overcast
3:25 PM 41.0 °F 35.8 °F 41.0 °F 100% 30.04 in 5.0 mi WSW 8.1 mph - N/A   Mostly Cloudy
3:38 PM 41.0 °F 35.2 °F 41.0 °F 100% 30.04 in 5.0 mi WSW 9.2 mph - N/A   Scattered Clouds
3:42 PM 41.0 °F 34.7 °F 41.0 °F 100% 30.04 in 4.3 mi WSW 10.4 mph - N/A   Scattered Clouds
3:46 PM 41.0 °F 34.3 °F 41.0 °F 100% 30.04 in 5.6 mi WSW 11.5 mph - N/A   Mostly Cloudy
3:55 PM 41.0 °F 34.3 °F 41.0 °F 100% 30.04 in 5.6 mi West 11.5 mph - N/A   Mostly Cloudy
4:07 PM 42.8 °F 37.5 °F 41.0 °F 93% 30.04 in 5.6 mi West 9.2 mph - N/A   Overcast
4:11 PM 41.0 °F 35.2 °F 41.0 °F 100% 30.04 in 4.3 mi West 9.2 mph - N/A   Overcast
4:25 PM 41.0 °F 36.4 °F 41.0 °F 100% 30.04 in 5.6 mi West 6.9 mph - N/A   Overcast
4:34 PM 41.0 °F 36.4 °F 41.0 °F 100% 30.06 in 5.0 mi WSW 6.9 mph - N/A   Overcast
4:41 PM 41.0 °F 36.4 °F 41.0 °F 100% 30.06 in 5.0 mi WSW 6.9 mph - N/A   Mostly Cloudy
4:55 PM 39.2 °F 34.2 °F 39.2 °F 100% 30.06 in 4.3 mi West 6.9 mph - N/A   Mostly Cloudy
4:59 PM 39.2 °F 35.0 °F 39.2 °F 100% 30.06 in 4.3 mi West 5.8 mph - N/A   Mostly Cloudy
5:03 PM 41.0 °F 38.0 °F 39.2 °F 93% 30.06 in 5.0 mi West 4.6 mph - N/A   Mostly Cloudy
5:10 PM 41.0 °F 38.0 °F 39.2 °F 93% 30.06 in 4.3 mi West 4.6 mph - N/A   Mostly Cloudy
5:14 PM 39.2 °F 35.0 °F 39.2 °F 100% 30.06 in 5.0 mi WSW 5.8 mph - N/A   Overcast
5:15 PM 39.2 °F 34.2 °F 39.2 °F 100% 30.06 in 4.3 mi WSW 6.9 mph - N/A   Overcast
5:25 PM 39.2 °F 33.6 °F 39.2 °F 100% 30.06 in 4.3 mi WSW 8.1 mph - N/A   Overcast
5:55 PM 39.2 °F 33.0 °F 39.2 °F 100% 30.06 in 4.3 mi WSW 9.2 mph - N/A   Overcast
6:25 PM 39.2 °F 33.0 °F 39.2 °F 100% 30.06 in 3.1 mi WSW 9.2 mph - N/A   Overcast
6:55 PM 39.2 °F 32.5 °F 39.2 °F 100% 30.09 in 3.7 mi WSW 10.4 mph - N/A   Overcast
7:18 PM 39.2 °F 32.0 °F 39.2 °F 100% 30.09 in - WSW 11.5 mph - N/A   Drizzle
7:25 PM 39.2 °F 32.0 °F 39.2 °F 100% 30.09 in - WSW 11.5 mph - N/A Rain Light Rain
7:27 PM 39.2 °F 32.5 °F 37.4 °F 93% 30.09 in 3.1 mi WSW 10.4 mph - N/A Rain Light Rain
7:34 PM 39.2 °F 32.5 °F 39.2 °F 100% 30.09 in - WSW 10.4 mph - N/A   Light Drizzle
7:45 PM 39.2 °F 32.5 °F 39.2 °F 100% 30.09 in - WSW 10.4 mph - N/A   Overcast
7:49 PM 39.2 °F 32.5 °F 39.2 °F 100% 30.09 in - WSW 10.4 mph - N/A   Overcast
7:55 PM 39.2 °F 32.5 °F 39.2 °F 100% 30.09 in 3.1 mi WSW 10.4 mph - N/A   Overcast
7:59 PM 39.2 °F 32.5 °F 39.2 °F 100% 30.09 in 3.1 mi WSW 10.4 mph - N/A   Overcast
8:09 PM 39.2 °F 32.5 °F 39.2 °F 100% 30.09 in - WSW 10.4 mph - N/A   Mostly Cloudy
8:16 PM 39.2 °F 32.5 °F 39.2 °F 100% 30.09 in - WSW 10.4 mph - N/A   Overcast
8:25 PM 39.2 °F 32.0 °F 39.2 °F 100% 30.09 in 3.1 mi WSW 11.5 mph - N/A   Mostly Cloudy
8:27 PM 39.2 °F 32.5 °F 39.2 °F 100% 30.09 in 3.1 mi WSW 10.4 mph - N/A   Overcast
8:55 PM 39.2 °F 32.5 °F 37.4 °F 93% 30.09 in - WSW 10.4 mph - N/A   Overcast
8:59 PM 39.2 °F 32.5 °F 37.4 °F 93% 30.09 in 2.5 mi WSW 10.4 mph - N/A   Overcast
9:03 PM 39.2 °F 32.5 °F 37.4 °F 93% 30.09 in 2.2 mi WSW 10.4 mph - N/A   Overcast
9:08 PM 39.2 °F 32.5 °F 37.4 °F 93% 30.09 in 2.2 mi WSW 10.4 mph - N/A   Overcast
9:15 PM 39.2 °F 32.5 °F 39.2 °F 100% 30.09 in - WSW 10.4 mph - N/A   Overcast
9:25 PM 39.2 °F 33.0 °F 39.2 °F 100% 30.12 in - WSW 9.2 mph - N/A   Overcast
9:38 PM 39.2 °F 32.5 °F 39.2 °F 100% 30.12 in - West 10.4 mph - N/A   Overcast
9:55 PM 39.2 °F 33.0 °F 39.2 °F 100% 30.12 in - West 9.2 mph - N/A   Overcast
10:25 PM 39.2 °F 33.6 °F 39.2 °F 100% 30.12 in - West 8.1 mph - N/A   Overcast
10:41 PM 39.2 °F 33.6 °F 39.2 °F 100% 30.12 in 3.1 mi West 8.1 mph - N/A   Overcast
10:55 PM 39.2 °F 32.5 °F 39.2 °F 100% 30.12 in 3.1 mi West 10.4 mph - N/A   Overcast
11:08 PM 39.2 °F 33.0 °F 39.2 °F 100% 30.12 in 3.1 mi WNW 9.2 mph - N/A   Overcast
11:20 PM 39.2 °F 33.6 °F 39.2 °F 100% 30.12 in - West 8.1 mph - N/A   Overcast
11:25 PM 39.2 °F 34.2 °F 39.2 °F 100% 30.12 in - WNW 6.9 mph - N/A   Overcast
11:40 PM 39.2 °F 33.0 °F 39.2 °F 100% 30.12 in - WNW 9.2 mph - N/A   Overcast
11:44 PM 39.2 °F 33.0 °F 39.2 °F 100% 30.12 in - WNW 9.2 mph - N/A   Overcast
11:50 PM 39.2 °F 33.0 °F 39.2 °F 100% 30.12 in - WNW 9.2 mph - N/A   Mostly Cloudy
11:55 PM 41.0 °F 35.2 °F 39.2 °F 93% 30.12 in - NW 9.2 mph - N/A   Overcast